Theta_e
319 318 317 316 316 315 314 315 315 314 315 315 315 315 315 316 316 317 317 317 317 317 317 317 320 321 314 303 306 325 346 341 322 308 305 303 300 297 298 295 297 294 299 300 303 303 312
319 318 317 316 315 315 314 314 314 315 315 315 315 316 316 316 316 316 316 316 316 316 316 317 321 321 310 297 312 324 318 312 308 305 305 305 304 302 298 297 297 301 301 302 303 304 315
318 317 316 315 314 314 313 314 314 314 315 315 315 315 315 315 315 316 316 316 315 316 317 318 322 319 309 303 314 315 309 305 304 307 303 305 306 302 300 299 300 302 299 301 302 309 311
316 315 315 314 314 314 313 313 313 314 315 315 314 314 314 315 315 315 316 316 315 318 318 320 323 316 303 312 312 308 306 306 305 307 307 308 306 301 299 300 300 298 296 295 300 309 312
315 314 314 314 313 313 313 313 313 313 314 315 314 314 314 314 315 315 315 314 316 321 322 324 314 310 305 320 314 313 309 309 308 307 307 312 303 299 299 294 292 293 293 294 300 303 305
314 314 314 313 313 313 313 313 313 313 314 315 314 313 313 313 314 314 313 314 318 321 322 322 319 302 308 309 315 314 309 311 308 306 305 302 297 294 292 291 287 289 290 292 294 298 301
313 313 313 313 313 312 313 313 313 314 314 314 314 313 312 313 313 313 309 303 300 297 303 299 300 304 307 312 312 311 313 310 308 303 296 298 294 291 293 294 294 294 292 292 295 299 300
313 312 312 312 312 312 313 313 313 313 314 314 313 313 313 312 312 312 306 304 304 304 295 304 302 303 308 308 303 307 312 305 301 296 296 295 291 297 297 297 296 295 292 293 296 299 303
311 312 312 312 312 312 312 313 313 313 313 312 312 312 312 312 311 307 303 306 307 303 295 302 304 301 301 305 302 304 308 304 299 295 294 292 296 301 299 297 297 293 292 293 295 298 300
311 311 312 312 313 313 312 313 313 313 312 312 311 311 312 310 308 302 306 308 308 304 293 302 305 305 304 303 301 307 310 306 299 297 295 295 298 299 296 296 297 291 297 298 297 293 289
311 312 313 313 313 313 313 313 313 312 312 311 311 311 311 310 301 302 309 307 308 305 285 306 303 307 303 301 302 304 309 306 301 300 298 297 296 296 295 298 299 296 298 297 296 291 289
310 311 312 313 313 313 312 312 312 312 311 311 311 311 310 306 301 305 307 305 303 294 291 304 305 301 299 300 302 303 304 307 305 300 298 299 301 300 299 301 300 302 296 293 290 288 284
310 311 313 313 313 312 312 312 312 311 311 310 310 310 307 307 303 305 306 302 290 285 300 298 300 302 298 298 300 301 300 297 295 292 293 297 299 299 302 297 298 295 290 286 285 285 285
311 311 312 312 313 312 311 311 311 311 310 309 308 307 306 306 303 307 303 294 284 294 297 302 301 300 297 299 298 299 298 295 297 296 292 291 292 298 302 299 297 293 292 287 282 282 285
310 311 312 312 312 312 311 311 311 310 309 308 306 301 302 306 307 305 298 287 286 294 299 298 299 295 295 297 297 296 295 296 299 297 292 291 293 302 304 303 301 295 291 293 288 285 284
312 311 310 310 312 312 312 311 311 310 309 307 298 300 304 310 310 304 293 290 293 300 302 302 292 295 291 294 293 293 293 300 301 302 300 296 291 300 304 304 301 298 299 290 287 283 281
312 311 311 309 311 311 312 311 310 310 308 305 298 297 305 310 307 300 290 292 298 305 306 304 299 295 295 296 294 293 295 302 307 305 301 297 294 297 300 297 296 296 293 291 290 288 284
312 312 311 310 309 311 311 311 310 309 306 300 294 289 304 307 298 295 293 298 303 304 307 305 303 300 298 298 297 296 296 302 308 308 301 301 294 291 296 302 303 298 295 293 289 288 288
312 312 312 311 310 311 311 311 310 309 306 296 291 292 305 304 292 290 296 301 303 304 302 301 302 303 302 298 293 298 301 306 306 305 303 304 292 288 290 295 299 297 298 295 292 290 288
311 312 312 312 311 311 311 310 310 309 307 296 293 291 298 299 297 294 292 295 298 305 302 303 301 302 300 298 299 296 298 304 307 304 314 307 294 291 287 291 298 297 300 298 294 289 290
309 310 311 312 312 311 311 310 310 308 307 298 294 294 295 292 294 293 292 295 296 295 299 300 298 299 297 292 294 293 297 300 303 308 303 299 292 297 299 301 301 300 299 300 295 294 291
309 309 309 310 312 312 311 310 310 308 307 297 293 293 296 293 294 293 292 291 295 297 297 297 295 299 296 293 293 292 295 294 295 300 297 297 291 296 294 299 300 297 298 299 301 301 294
307 307 309 309 311 312 311 311 310 309 304 295 297 297 295 293 292 290 291 295 297 297 299 300 298 295 296 298 300 299 298 298 298 296 295 293 293 291 288 297 296 290 296 299 300 303 301
308 308 306 308 310 311 311 311 310 309 304 296 296 296 292 290 292 293 296 297 296 296 294 298 299 294 300 303 301 298 296 296 296 296 296 292 293 291 286 291 282 291 301 302 302 303 304
308 308 308 308 309 311 311 311 310 310 309 297 296 295 292 288 293 294 295 295 295 295 294 295 297 298 298 297 291 288 288 288 291 293 294 295 292 288 284 284 289 294 301 300 299 298 305
308 308 308 308 308 309 311 311 310 310 309 297 296 298 294 289 288 296 293 293 289 288 291 294 298 297 297 294 290 283 281 287 286 289 294 295 295 290 286 283 282 293 300 302 303 293 302
308 308 308 308 308 308 311 311 311 310 309 298 296 298 295 289 292 293 290 290 292 289 287 290 293 293 295 289 287 284 285 291 283 285 287 288 288 286 285 284 289 296 297 300 291 290 300
308 308 308 308 308 308 310 311 311 311 310 300 296 299 296 290 292 296 297 291 292 290 287 289 287 289 290 286 285 285 285 288 286 289 287 284 285 285 286 283 283 297 296 289 293 296 303
308 308 308 308 308 309 311 311 311 311 310 303 293 300 299 294 292 296 298 299 298 296 292 289 288 288 290 288 286 286 285 285 283 281 290 282 287 283 285 286 295 294 293 295 297 302 298
Wind_Speed
17 18 18 19 20 20 20 21 21 21 21 23 24 25 25 24 23 22 21 21 19 18 15 13 11 4 2 3 9 3 10 14 8 7 6 5 4 4 2 4 3 4 6 6 14 10 12
17 18 17 18 18 18 20 21 22 21 22 23 24 25 25 25 25 24 23 23 19 16 15 11 8 3 1 3 3 7 11 9 7 6 5 6 7 7 4 4 2 4 5 8 10 5 8
18 17 17 18 18 19 21 21 23 23 23 23 24 25 26 26 26 26 24 23 21 18 13 8 6 3 2 13 2 7 9 8 5 7 5 5 5 1 1 6 2 5 7 7 3 3 3
16 16 16 17 17 19 20 21 23 23 23 23 24 25 26 26 27 28 27 24 22 15 4 6 8 2 7 3 4 6 2 3 5 6 4 4 5 3 5 3 8 6 4 3 5 6 3
16 16 16 16 17 18 19 21 22 24 24 24 24 25 26 27 28 29 29 25 17 3 5 8 3 2 8 1 2 6 7 4 5 4 4 3 3 1 6 5 6 7 2 2 8 5 4
16 16 16 16 17 17 19 20 20 22 24 24 25 26 27 28 27 29 30 20 1 5 2 4 3 3 5 1 2 5 3 3 2 2 2 4 6 4 5 6 4 3 4 4 5 3 2
15 15 16 17 17 18 19 20 20 22 23 25 25 26 28 28 29 27 16 4 9 6 0 8 6 4 6 7 4 1 4 6 3 5 2 4 5 5 8 7 3 2 3 5 7 8 3
14 15 16 17 18 18 18 19 20 22 23 24 25 27 28 30 28 27 4 6 5 6 12 10 11 10 5 4 5 4 7 6 6 5 3 6 6 10 4 3 4 3 4 10 9 5 4
15 15 16 16 17 17 19 18 20 22 23 24 25 26 27 31 32 4 2 2 2 3 3 10 4 4 5 10 8 8 6 4 4 5 4 6 8 3 3 3 3 4 4 7 10 6 3
15 16 16 16 16 16 19 20 21 22 23 24 24 24 24 31 3 6 6 5 6 2 5 8 4 5 5 6 4 9 7 6 1 9 8 5 5 5 2 6 7 6 8 11 6 2 3
15 15 15 15 16 17 18 20 22 23 24 25 26 24 21 10 6 4 6 9 9 4 4 3 0 2 3 8 3 2 6 4 8 6 6 10 4 5 2 8 7 11 3 7 4 3 4
15 16 15 15 16 17 18 20 21 23 24 25 26 24 19 2 2 8 9 8 4 7 4 7 2 0 2 3 3 2 3 5 3 4 3 9 2 6 8 6 8 5 3 5 5 4 2
14 14 14 15 16 17 18 20 22 23 25 27 29 28 12 3 5 4 5 5 7 4 5 7 5 6 3 4 6 2 4 4 6 3 5 5 9 4 5 3 1 5 7 4 6 6 7
13 13 14 13 15 17 18 20 22 24 26 28 31 28 6 6 2 5 4 6 2 3 4 4 5 7 6 5 3 8 3 3 4 6 3 2 10 6 5 8 7 2 8 7 7 5 7
13 13 13 13 15 16 18 19 22 24 27 29 27 4 3 4 6 2 6 3 7 5 4 7 9 6 4 6 2 4 4 2 3 2 1 1 10 5 3 3 6 3 3 5 2 2 3
12 14 15 16 14 16 18 19 22 24 27 28 5 5 5 3 5 5 6 4 3 3 6 3 2 3 2 4 3 4 3 3 7 4 4 4 8 6 15 4 1 6 5 1 3 3 5
10 11 13 16 14 14 16 18 20 23 27 22 3 5 4 4 3 6 3 6 5 4 5 3 3 4 3 2 1 2 1 3 6 7 6 1 3 8 3 2 7 1 3 4 5 6 6
10 10 11 14 14 12 14 15 18 20 26 9 4 3 4 3 5 1 1 3 7 6 4 4 3 2 2 2 1 1 4 5 12 4 2 3 2 5 8 6 4 3 5 5 6 5 3
11 10 10 11 10 12 12 13 15 16 13 4 3 4 6 3 1 2 5 5 3 5 5 6 7 4 4 2 1 5 6 1 9 7 4 5 2 4 11 9 5 4 3 5 5 3 4
13 11 10 10 10 10 11 11 12 13 12 2 2 5 6 5 2 3 3 4 6 5 0 4 5 4 5 6 7 4 6 4 4 6 6 4 1 6 7 5 2 7 8 2 4 3 5
12 14 10 11 11 10 9 9 11 12 13 2 2 2 1 4 3 3 1 2 3 5 3 8 5 6 3 4 6 6 2 4 5 5 6 5 3 2 5 7 7 9 4 8 5 8 7
12 11 12 13 13 10 8 9 10 12 11 3 2 3 5 3 4 4 5 2 3 6 3 1 5 2 6 5 2 4 4 3 5 3 1 1 4 2 6 7 8 6 8 11 13 12 7
12 12 11 12 12 11 8 7 7 9 5 2 2 2 3 3 4 1 0 4 4 6 4 4 1 4 4 2 3 8 8 7 9 6 4 4 4 1 6 6 7 9 11 11 2 7 4
11 12 13 11 12 11 8 7 5 5 3 2 2 2 3 4 1 1 4 3 4 5 3 4 6 2 3 6 4 5 5 7 7 13 6 5 1 2 4 3 6 4 5 3 9 7 7
13 12 11 11 11 11 9 7 5 3 0 2 1 2 2 3 2 4 5 3 5 5 3 1 4 2 5 2 4 5 6 7 4 4 5 8 4 3 2 3 7 4 8 6 4 2 4
14 13 13 11 11 12 10 8 6 5 2 2 2 2 2 2 4 4 3 2 0 3 6 3 4 6 6 3 3 2 3 2 5 9 2 3 1 4 0 3 6 2 8 12 6 4 6
14 14 13 12 11 13 12 10 7 6 4 3 2 0 3 1 3 2 1 2 0 2 1 3 6 7 4 2 2 3 4 2 3 3 4 5 2 6 4 6 5 5 9 11 5 5 9
13 13 14 13 14 13 12 11 9 8 6 4 3 1 4 2 5 3 2 1 3 2 2 3 4 4 4 4 2 1 1 2 3 4 4 2 3 2 0 2 8 5 5 4 8 12 8
11 12 12 13 11 11 13 12 10 8 7 5 1 2 1 2 6 2 5 9 7 8 4 2 3 2 3 4 1 2 1 3 1 4 5 4 1 2 3 6 3 3 4 6 7 4 7
Wind_Direction
9 7 6 5 2 358 354 354 351 349 346 343 341 338 335 332 330 326 321 317 315 314 312 309 302 277 249 353 253 39 103 140 115 128 169 151 138 172 242 226 268 170 228 222 247 255 206
3 2 2 1 359 357 353 353 349 346 346 343 339 335 334 331 328 325 320 314 313 307 303 294 279 192 216 292 238 129 114 129 152 150 175 163 185 202 255 242 186 236 210 254 278 270 165
0 359 359 358 358 357 352 352 348 346 344 341 339 335 334 330 325 322 318 315 313 308 296 265 223 213 129 237 22 151 142 165 176 163 169 209 166 108 12 287 234 281 319 340 292 120 100
0 358 357 358 356 355 351 349 346 346 342 339 338 335 330 328 325 321 318 319 316 313 273 192 180 222 242 241 115 137 188 206 168 216 206 170 166 209 178 301 1 8 42 27 273 117 230
356 356 357 356 355 352 349 346 347 343 341 339 336 331 329 328 326 322 318 319 315 42 137 153 146 190 268 142 191 214 168 208 145 200 248 248 166 171 24 77 6 1 253 292 327 198 101
354 356 355 354 353 350 347 345 343 340 338 336 336 333 330 328 326 323 319 309 215 109 171 199 250 348 292 67 287 173 228 159 186 138 18 80 53 63 42 62 210 246 347 318 276 295 121
349 353 352 351 351 348 346 344 341 338 335 336 335 332 329 328 327 327 337 29 11 348 101 213 222 253 291 295 328 24 161 114 356 47 190 3 58 240 237 195 199 256 218 264 255 258 248
348 350 350 349 347 344 342 340 337 335 334 335 334 331 329 327 325 323 296 67 98 248 303 264 243 239 245 67 321 289 128 139 146 194 108 19 248 238 238 192 215 237 308 294 291 329 160
348 347 346 345 341 340 340 339 336 334 333 333 331 329 330 325 321 352 309 212 28 323 292 299 219 195 209 142 211 258 142 131 153 155 176 169 234 102 163 297 267 250 209 256 231 337 318
344 342 342 340 336 336 338 339 336 333 332 329 326 327 331 329 14 324 299 324 325 228 33 279 289 276 127 140 252 214 169 141 96 199 160 229 277 222 244 257 161 277 210 231 243 135 218
340 340 340 337 334 335 334 333 333 331 329 326 323 324 326 327 294 309 284 337 321 61 10 324 289 102 156 153 225 279 173 97 182 198 116 245 241 269 210 232 156 237 155 206 209 158 80
338 338 337 334 334 334 333 331 330 328 327 323 319 319 327 156 236 248 309 316 42 44 267 340 83 125 169 246 297 52 100 64 164 203 196 241 242 173 216 260 175 253 133 43 37 100 61
334 334 330 328 330 332 331 330 329 328 327 322 317 314 307 221 230 320 309 34 41 135 330 344 327 337 127 329 349 188 170 176 187 132 254 334 261 232 178 264 7 86 62 334 341 353 228
329 326 324 329 331 331 332 332 330 329 326 322 319 313 212 217 248 344 38 49 164 261 287 345 313 327 99 10 24 348 93 229 335 30 56 184 322 182 169 183 198 189 151 154 227 225 247
324 326 326 329 330 331 331 332 333 332 326 325 319 316 272 266 184 171 72 80 213 214 334 330 324 56 20 348 86 27 26 37 70 135 162 136 265 310 237 223 127 277 207 194 155 52 68
318 323 327 329 325 328 333 334 336 331 330 330 320 335 294 314 161 62 74 234 252 238 343 320 287 79 104 301 44 31 360 12 348 358 153 270 295 245 278 115 195 162 176 24 14 258 267
307 314 322 327 322 328 332 334 336 338 334 328 12 12 275 68 58 47 142 237 283 277 318 274 272 290 74 107 64 355 316 88 338 315 318 17 158 289 355 196 219 295 259 63 120 147 187
300 303 308 322 324 326 328 334 341 346 343 32 348 6 313 15 41 26 194 218 300 324 335 310 252 304 138 132 118 301 113 24 334 338 46 317 175 278 243 269 260 231 232 157 136 252 216
298 295 306 306 319 321 326 334 341 350 17 331 5 277 306 59 128 321 307 304 271 328 340 358 8 11 8 31 29 42 28 54 16 35 32 326 322 356 334 342 6 44 4 103 113 70 224
314 303 300 312 307 310 317 327 335 340 350 70 12 355 324 38 46 112 19 292 322 307 93 33 10 26 45 27 18 45 10 15 12 3 356 152 138 172 199 246 352 302 317 293 140 148 229
305 305 316 311 293 297 307 322 333 337 340 101 33 313 160 322 340 356 299 277 318 337 30 25 30 35 321 52 7 6 4 322 311 24 14 75 290 244 248 263 282 275 299 319 252 227 197
286 294 302 299 298 290 301 319 331 333 341 66 60 24 349 286 322 330 359 40 340 313 336 51 101 24 68 99 127 306 344 11 248 302 147 308 267 266 265 267 261 259 294 275 272 269 251
292 289 281 291 294 286 285 298 313 334 5 50 317 333 107 292 334 16 311 302 343 337 25 41 193 123 121 159 239 233 221 230 234 250 203 209 199 220 257 222 308 284 226 236 292 41 331
286 289 288 276 288 284 263 269 285 324 49 134 245 91 78 271 255 206 339 300 343 332 263 11 19 51 186 320 287 300 300 268 257 270 213 256 106 180 260 243 236 256 49 48 102 53 20
295 293 287 273 278 284 251 250 247 270 338 101 272 103 124 264 282 299 345 313 323 321 356 77 341 282 294 334 38 5 338 352 296 240 277 195 125 271 251 239 293 4 14 359 360 82 7
294 287 281 278 267 280 253 236 217 235 219 94 260 160 123 114 244 293 290 14 326 326 335 4 325 324 26 70 78 143 250 266 311 320 344 99 97 146 304 262 252 359 337 319 298 234 354
288 293 294 282 267 273 256 228 217 220 209 118 267 163 100 186 266 4 197 217 351 87 235 304 330 353 28 66 129 169 247 270 258 256 320 323 308 213 212 243 283 322 6 319 221 307 325
274 277 284 278 273 261 255 216 216 210 196 125 256 275 133 197 274 243 252 322 349 89 139 283 23 345 31 65 117 251 193 326 313 297 313 285 308 277 60 275 277 10 21 63 282 309 307
263 270 275 284 249 251 238 213 206 194 177 133 281 314 90 157 242 268 235 230 198 205 134 335 192 210 195 91 51 83 346 10 52 285 319 281 127 260 206 241 270 82 212 244 271 254 298